DLH89T LIPE-EDDF

Flight info

Callsign DLH89T
Flight time N/A
Altitude 30000
Route LUMAV L12 VIC DCT NAXAV DCT UNIMI L12 MOGTI Q163 HAFUN/N0424F240 Q163 ETASA T163 SPESA SPESA4B
Aircraft A320/M-SDE3FGHIRWY/LB1

Departure

Time N/A
Airport Bologna Guglielmo Marconi Airport (LIPE)

Arrival

Time 2026-04-15 15:15
Airport Frankfurt Main Airport (EDDF)
Time Latitude Longitude Altitude Speed Heading
2026-04-15 15:01 49.83858 9.33496 17451 ft 414 kts
2026-04-15 15:01 49.86723 9.33997 16933 ft 410 kts
2026-04-15 15:02 49.89550 9.34486 16422 ft 407 kts
2026-04-15 15:02 49.92353 9.34976 16137 ft 403 kts
2026-04-15 15:02 49.95145 9.35461 16186 ft 405 kts
2026-04-15 15:02 49.97950 9.35899 16189 ft 405 kts
2026-04-15 15:03 50.00755 9.36329 16064 ft 406 kts
2026-04-15 15:03 50.03505 9.36753 15561 ft 387 kts
2026-04-15 15:03 50.06117 9.37159 15073 ft 369 kts
2026-04-15 15:03 50.08615 9.37550 14595 ft 355 kts
2026-04-15 15:04 50.11046 9.37932 14119 ft 349 kts
2026-04-15 15:04 50.13428 9.38307 13604 ft 338 kts
2026-04-15 15:04 50.15720 9.38673 13079 ft 326 kts
2026-04-15 15:04 50.17944 9.39018 12564 ft 316 kts
2026-04-15 15:05 50.20062 9.38621 12056 ft 301 kts 337°
2026-04-15 15:05 50.21787 9.36945 11556 ft 289 kts 311°
2026-04-15 15:05 50.22822 9.34365 11061 ft 278 kts 288°
2026-04-15 15:05 50.23403 9.31520 10576 ft 272 kts 284°
2026-04-15 15:06 50.24404 9.25931 9561 ft 262 kts 282°
2026-04-15 15:06 50.24540 9.23154 9040 ft 254 kts 260°
2026-04-15 15:06 50.23979 9.20589 8521 ft 248 kts 239°
2026-04-15 15:07 50.23117 9.18294 8013 ft 243 kts 239°
2026-04-15 15:07 50.22267 9.16052 7721 ft 239 kts 239°
2026-04-15 15:07 50.21420 9.13820 7467 ft 238 kts 238°
2026-04-15 15:07 50.20578 9.11598 7224 ft 238 kts 238°
2026-04-15 15:08 50.19736 9.09382 6982 ft 237 kts 239°
2026-04-15 15:08 50.19180 9.07917 6760 ft 238 kts 238°
2026-04-15 15:08 50.18715 9.06701 6504 ft 240 kts 239°
2026-04-15 15:09 50.17961 9.04739 6033 ft 239 kts 238°
2026-04-15 15:09 50.17117 9.02525 5522 ft 236 kts 238°
2026-04-15 15:09 50.16293 9.00359 5079 ft 232 kts 238°
2026-04-15 15:09 50.15469 8.98187 4990 ft 232 kts 238°
2026-04-15 15:10 50.14672 8.95989 4996 ft 234 kts 246°
2026-04-15 15:10 50.14109 8.93603 5002 ft 235 kts 249°
2026-04-15 15:10 50.13542 8.91214 4998 ft 235 kts 249°
2026-04-15 15:10 50.12976 8.88817 4986 ft 236 kts 249°
2026-04-15 15:11 50.12414 8.86428 4777 ft 232 kts 249°
2026-04-15 15:11 50.11865 8.84093 4492 ft 227 kts 249°
2026-04-15 15:11 50.11332 8.81829 4195 ft 225 kts 249°
2026-04-15 15:11 50.10890 8.79955 3945 ft 225 kts 249°
2026-04-15 15:12 50.10348 8.77670 3640 ft 224 kts 249°
2026-04-15 15:12 50.09813 8.75396 3344 ft 224 kts 249°
2026-04-15 15:12 50.09276 8.73125 3044 ft 222 kts 249°
2026-04-15 15:12 50.08750 8.70902 2745 ft 214 kts 249°
2026-04-15 15:13 50.08249 8.68789 2476 ft 208 kts 249°
2026-04-15 15:13 50.07773 8.66787 2201 ft 210 kts 249°
2026-04-15 15:13 50.07271 8.64669 1912 ft 206 kts 248°
2026-04-15 15:13 50.06783 8.62612 1649 ft 199 kts 249°
2026-04-15 15:14 50.06308 8.60617 1383 ft 195 kts 249°
2026-04-15 15:14 50.05852 8.58702 1152 ft 182 kts 250°
2026-04-15 15:14 50.05433 8.56947 916 ft 163 kts 250°
2026-04-15 15:14 50.05060 8.55346 646 ft 151 kts 249°
2026-04-15 15:15 50.04704 8.53866 479 ft 144 kts 248°
2026-04-15 15:15 50.04358 8.52429 350 ft 135 kts 248°
2026-04-15 15:15 50.04080 8.51283 329 ft 88 kts 250°
2026-04-15 15:15 50.03926 8.50638 324 ft 39 kts 248°
2026-04-15 15:16 50.03852 8.50424 322 ft 20 kts 237°
2026-04-15 15:16 50.03726 8.50234 321 ft 28 kts 219°
2026-04-15 15:16 50.03655 8.50187 321 ft 0 kts 165°
2026-04-15 15:17 50.03638 8.50202 320 ft 5 kts 143°
2026-04-15 15:17 50.03640 8.50335 322 ft 23 kts 70°
2026-04-15 15:17 50.03704 8.50600 326 ft 27 kts 70°
2026-04-15 15:17 50.03768 8.50875 327 ft 27 kts 70°
2026-04-15 15:18 50.03835 8.51150 332 ft 27 kts 69°
2026-04-15 15:18 50.03898 8.51415 332 ft 28 kts 70°
2026-04-15 15:18 50.03965 8.51694 336 ft 28 kts 69°
2026-04-15 15:18 50.04032 8.51975 338 ft 28 kts 69°
2026-04-15 15:19 50.04099 8.52259 349 ft 28 kts 69°
2026-04-15 15:19 50.04168 8.52545 347 ft 28 kts 70°
2026-04-15 15:19 50.04237 8.52833 349 ft 28 kts 69°
2026-04-15 15:19 50.04305 8.53119 358 ft 28 kts 69°
2026-04-15 15:20 50.04374 8.53399 364 ft 27 kts 70°
2026-04-15 15:20 50.04406 8.53694 361 ft 28 kts 85°
2026-04-15 15:20 50.04427 8.54002 361 ft 29 kts 84°
2026-04-15 15:20 50.04447 8.54321 365 ft 30 kts 84°
2026-04-15 15:21 50.04414 8.54626 362 ft 28 kts 121°
2026-04-15 15:21 50.04260 8.54802 363 ft 28 kts 160°
2026-04-15 15:21 50.04075 8.54907 361 ft 21 kts 160°
2026-04-15 15:21 50.04064 8.54913 364 ft 0 kts 160°
2026-04-15 15:22 50.03977 8.54963 364 ft 23 kts 159°
2026-04-15 15:22 50.03852 8.55050 365 ft 16 kts 137°
2026-04-15 15:23 50.03870 8.55193 363 ft 14 kts 70°
2026-04-15 15:23 50.03921 8.55411 361 ft 33 kts 70°
2026-04-15 15:23 50.04003 8.55764 362 ft 35 kts 68°
2026-04-15 15:23 50.04089 8.56120 364 ft 35 kts 69°
2026-04-15 15:24 50.04175 8.56478 364 ft 35 kts 70°
2026-04-15 15:24 50.04258 8.56837 365 ft 35 kts 71°
2026-04-15 15:24 50.04343 8.57194 367 ft 35 kts 70°
2026-04-15 15:24 50.04429 8.57551 369 ft 35 kts 70°
2026-04-15 15:25 50.04487 8.57787 366 ft 23 kts 70°
2026-04-15 15:25 50.04519 8.57920 367 ft 0 kts 69°
2026-04-15 15:26 50.04547 8.58039 367 ft 29 kts 70°
2026-04-15 15:26 50.04619 8.58347 366 ft 31 kts 69°
2026-04-15 15:26 50.04697 8.58663 364 ft 32 kts 68°
2026-04-15 15:27 50.04779 8.58986 365 ft 31 kts 70°
2026-04-15 15:27 50.04827 8.59145 365 ft 9 kts 21°
2026-04-15 15:27 50.04883 8.59119 363 ft 7 kts 339°
2026-04-15 15:27 50.04902 8.59108 369 ft 0 kts 339°